QPF
0.06 0.03 0.02 0.01 0.02 0.02 0.02 0.02 0.03 0.03 0.04 0.04 0.04 0.05 0.04 0.03 0.03 0.02 0.02 0.02 0.01 0.01 0.01 0.01 0.01 0.01 0.01 0.01 0.02 0.01 0.01 0.01 0.01 0.01 0.01 0.01 0.01 0.00 0.00 0.00 0.00 0.01 0.01
0.03 0.02 0.02 0.03 0.04 0.04 0.03 0.02 0.02 0.02 0.03 0.03 0.03 0.02 0.03 0.03 0.03 0.03 0.02 0.02 0.02 0.02 0.01 0.01 0.02 0.02 0.03 0.02 0.01 0.01 0.02 0.02 0.01 0.01 0.01 0.01 0.01 0.01 0.01 0.01 0.00 0.01 0.01
0.02 0.03 0.03 0.03 0.04 0.04 0.03 0.02 0.03 0.03 0.03 0.04 0.03 0.02 0.02 0.02 0.03 0.02 0.02 0.01 0.01 0.02 0.02 0.02 0.03 0.02 0.03 0.03 0.02 0.01 0.02 0.02 0.01 0.01 0.01 0.01 0.01 0.01 0.01 0.01 0.01 0.01 0.01
0.03 0.03 0.03 0.03 0.03 0.02 0.02 0.02 0.03 0.03 0.04 0.06 0.05 0.03 0.03 0.04 0.05 0.04 0.03 0.02 0.01 0.01 0.02 0.02 0.02 0.02 0.02 0.02 0.02 0.02 0.02 0.01 0.01 0.01 0.01 0.01 0.01 0.01 0.01 0.01 0.01 0.01 0.01
0.05 0.03 0.03 0.03 0.03 0.03 0.02 0.01 0.03 0.04 0.04 0.05 0.05 0.03 0.05 0.05 0.05 0.04 0.04 0.03 0.04 0.02 0.02 0.01 0.02 0.01 0.02 0.04 0.05 0.04 0.03 0.02 0.02 0.02 0.01 0.02 0.01 0.01 0.01 0.01 0.01 0.01 0.01
0.05 0.04 0.03 0.04 0.05 0.04 0.04 0.03 0.04 0.04 0.04 0.04 0.04 0.05 0.07 0.06 0.06 0.05 0.05 0.04 0.04 0.03 0.02 0.01 0.01 0.01 0.02 0.04 0.05 0.06 0.06 0.04 0.04 0.03 0.02 0.02 0.02 0.02 0.02 0.02 0.02 0.02 0.02
0.06 0.05 0.05 0.05 0.06 0.05 0.04 0.04 0.04 0.04 0.04 0.05 0.05 0.05 0.07 0.07 0.06 0.05 0.05 0.05 0.05 0.04 0.04 0.04 0.02 0.01 0.02 0.04 0.04 0.06 0.07 0.06 0.06 0.04 0.04 0.03 0.03 0.03 0.02 0.02 0.01 0.01 0.01
0.07 0.05 0.05 0.06 0.05 0.06 0.05 0.04 0.03 0.03 0.04 0.04 0.04 0.04 0.03 0.04 0.05 0.04 0.06 0.05 0.06 0.06 0.08 0.07 0.05 0.04 0.04 0.04 0.04 0.05 0.07 0.07 0.07 0.07 0.06 0.04 0.03 0.03 0.02 0.02 0.01 0.01 0.00
0.06 0.06 0.05 0.05 0.04 0.04 0.04 0.02 0.02 0.03 0.04 0.04 0.04 0.04 0.05 0.06 0.03 0.03 0.04 0.07 0.08 0.08 0.08 0.09 0.09 0.08 0.07 0.08 0.09 0.07 0.06 0.05 0.05 0.06 0.05 0.03 0.02 0.01 0.02 0.02 0.02 0.01 0.01
0.04 0.04 0.03 0.04 0.04 0.04 0.03 0.03 0.02 0.02 0.03 0.03 0.03 0.03 0.06 0.04 0.03 0.02 0.03 0.05 0.08 0.11 0.10 0.11 0.13 0.14 0.11 0.10 0.12 0.13 0.07 0.05 0.04 0.05 0.05 0.05 0.03 0.02 0.01 0.02 0.03 0.04 0.03
0.06 0.05 0.05 0.04 0.05 0.06 0.04 0.03 0.04 0.04 0.04 0.03 0.04 0.05 0.05 0.03 0.02 0.02 0.02 0.04 0.05 0.07 0.07 0.09 0.12 0.15 0.16 0.15 0.17 0.15 0.12 0.09 0.05 0.04 0.05 0.06 0.06 0.05 0.04 0.04 0.05 0.05 0.04
0.06 0.07 0.08 0.07 0.06 0.06 0.05 0.03 0.04 0.06 0.07 0.05 0.05 0.08 0.06 0.05 0.04 0.03 0.03 0.03 0.04 0.04 0.05 0.06 0.09 0.08 0.07 0.11 0.19 0.19 0.12 0.11 0.09 0.07 0.05 0.06 0.06 0.06 0.06 0.06 0.05 0.05 0.05
0.05 0.06 0.08 0.06 0.04 0.04 0.06 0.08 0.08 0.07 0.07 0.07 0.06 0.08 0.08 0.05 0.05 0.05 0.04 0.04 0.03 0.03 0.04 0.05 0.07 0.08 0.10 0.08 0.11 0.11 0.09 0.10 0.10 0.08 0.06 0.05 0.05 0.05 0.06 0.06 0.07 0.07 0.07
0.06 0.06 0.05 0.06 0.06 0.06 0.09 0.11 0.09 0.08 0.08 0.08 0.07 0.07 0.07 0.06 0.07 0.06 0.06 0.07 0.05 0.03 0.03 0.04 0.06 0.09 0.12 0.10 0.10 0.09 0.08 0.09 0.09 0.08 0.06 0.06 0.05 0.05 0.04 0.04 0.03 0.03 0.03
0.06 0.07 0.05 0.05 0.05 0.06 0.07 0.08 0.07 0.08 0.09 0.08 0.08 0.07 0.07 0.07 0.07 0.05 0.07 0.08 0.07 0.05 0.04 0.04 0.05 0.06 0.09 0.11 0.12 0.12 0.10 0.10 0.09 0.08 0.07 0.06 0.05 0.04 0.03 0.03 0.02 0.02 0.01
0.04 0.05 0.05 0.04 0.05 0.04 0.05 0.05 0.04 0.05 0.06 0.07 0.07 0.07 0.05 0.05 0.05 0.05 0.05 0.07 0.07 0.08 0.07 0.06 0.05 0.05 0.06 0.07 0.11 0.09 0.09 0.10 0.09 0.09 0.08 0.07 0.06 0.06 0.05 0.05 0.04 0.03 0.02
0.04 0.03 0.05 0.05 0.05 0.05 0.05 0.04 0.05 0.05 0.06 0.06 0.06 0.06 0.05 0.06 0.05 0.05 0.06 0.09 0.10 0.11 0.10 0.08 0.07 0.07 0.08 0.09 0.11 0.11 0.09 0.07 0.06 0.07 0.06 0.07 0.07 0.06 0.06 0.05 0.04 0.04 0.03
0.05 0.05 0.05 0.05 0.04 0.04 0.04 0.04 0.05 0.06 0.05 0.05 0.06 0.08 0.08 0.08 0.07 0.07 0.10 0.11 0.11 0.11 0.10 0.08 0.08 0.09 0.11 0.12 0.13 0.13 0.11 0.08 0.07 0.07 0.06 0.05 0.04 0.03 0.03 0.03 0.03 0.03 0.03
0.06 0.05 0.05 0.03 0.03 0.03 0.03 0.03 0.04 0.05 0.06 0.06 0.07 0.08 0.07 0.09 0.09 0.10 0.11 0.10 0.10 0.11 0.11 0.10 0.09 0.10 0.11 0.09 0.09 0.10 0.10 0.09 0.08 0.08 0.07 0.06 0.04 0.04 0.03 0.03 0.03 0.03 0.03
0.05 0.04 0.04 0.04 0.03 0.03 0.03 0.04 0.06 0.06 0.06 0.06 0.06 0.06 0.07 0.09 0.10 0.11 0.11 0.10 0.10 0.12 0.15 0.14 0.13 0.12 0.11 0.10 0.08 0.07 0.09 0.08 0.07 0.06 0.06 0.06 0.05 0.04 0.04 0.03 0.03 0.04 0.04
0.05 0.05 0.04 0.04 0.03 0.03 0.03 0.05 0.06 0.06 0.06 0.05 0.05 0.06 0.07 0.08 0.09 0.10 0.10 0.10 0.12 0.12 0.12 0.13 0.14 0.15 0.14 0.13 0.11 0.09 0.10 0.10 0.08 0.06 0.05 0.04 0.04 0.04 0.04 0.03 0.03 0.03 0.03
0.06 0.05 0.05 0.04 0.04 0.04 0.04 0.04 0.04 0.04 0.04 0.04 0.05 0.07 0.07 0.05 0.04 0.04 0.05 0.07 0.07 0.06 0.07 0.09 0.10 0.12 0.13 0.13 0.14 0.14 0.12 0.10 0.08 0.06 0.05 0.04 0.03 0.03 0.03 0.03 0.03 0.03 0.03
0.04 0.04 0.04 0.04 0.03 0.03 0.04 0.03 0.03 0.03 0.03 0.03 0.03 0.03 0.04 0.03 0.03 0.04 0.05 0.05 0.05 0.06 0.06 0.07 0.09 0.10 0.11 0.11 0.12 0.12 0.10 0.08 0.07 0.07 0.06 0.05 0.04 0.03 0.02 0.03 0.04 0.03 0.03
0.04 0.04 0.03 0.03 0.02 0.02 0.03 0.03 0.03 0.03 0.03 0.02 0.01 0.01 0.02 0.02 0.03 0.04 0.04 0.04 0.04 0.06 0.07 0.06 0.07 0.09 0.09 0.10 0.10 0.09 0.08 0.08 0.08 0.07 0.06 0.07 0.06 0.05 0.04 0.03 0.05 0.04 0.04
0.07 0.05 0.03 0.02 0.02 0.02 0.03 0.03 0.02 0.02 0.02 0.02 0.02 0.02 0.01 0.01 0.02 0.03 0.03 0.03 0.03 0.04 0.07 0.09 0.10 0.10 0.10 0.10 0.10 0.10 0.10 0.10 0.09 0.08 0.06 0.06 0.07 0.07 0.07 0.06 0.05 0.05 0.04
0.07 0.07 0.04 0.02 0.01 0.01 0.02 0.02 0.01 0.01 0.01 0.01 0.02 0.01 0.01 0.01 0.02 0.02 0.02 0.02 0.02 0.03 0.05 0.06 0.07 0.08 0.08 0.09 0.10 0.10 0.10 0.10 0.10 0.10 0.09 0.09 0.10 0.10 0.10 0.07 0.05 0.04 0.03
MSLP
1018.62 1018.75 1018.79 1018.77 1018.72 1018.69 1018.70 1018.76 1018.87 1019.01 1019.17 1019.32 1019.45 1019.57 1019.69 1019.81 1019.95 1020.12 1020.31 1020.51 1020.72 1020.91 1021.08 1021.23 1021.34 1021.43 1021.51 1021.59 1021.67 1021.77 1021.88 1022.00 1022.14 1022.29 1022.45 1022.62 1022.80 1022.97 1023.13 1023.25 1023.34 1023.39 1023.39
1018.65 1018.82 1018.89 1018.90 1018.87 1018.84 1018.83 1018.87 1018.96 1019.08 1019.21 1019.34 1019.46 1019.57 1019.67 1019.77 1019.88 1020.01 1020.16 1020.34 1020.53 1020.72 1020.90 1021.07 1021.22 1021.35 1021.46 1021.55 1021.62 1021.70 1021.78 1021.87 1021.98 1022.12 1022.29 1022.48 1022.69 1022.90 1023.09 1023.25 1023.36 1023.41 1023.42
1018.58 1018.79 1018.91 1018.96 1018.98 1018.98 1018.99 1019.04 1019.11 1019.22 1019.33 1019.45 1019.55 1019.64 1019.71 1019.78 1019.85 1019.93 1020.03 1020.15 1020.30 1020.47 1020.65 1020.84 1021.02 1021.18 1021.33 1021.45 1021.54 1021.61 1021.68 1021.75 1021.85 1021.97 1022.14 1022.34 1022.57 1022.80 1023.02 1023.19 1023.32 1023.38 1023.39
1018.42 1018.65 1018.82 1018.94 1019.02 1019.08 1019.14 1019.20 1019.29 1019.39 1019.50 1019.60 1019.70 1019.77 1019.82 1019.85 1019.87 1019.89 1019.91 1019.96 1020.05 1020.17 1020.33 1020.51 1020.71 1020.91 1021.10 1021.25 1021.38 1021.48 1021.55 1021.63 1021.72 1021.84 1022.00 1022.20 1022.43 1022.67 1022.89 1023.08 1023.21 1023.28 1023.29
1018.17 1018.42 1018.64 1018.82 1018.97 1019.09 1019.21 1019.32 1019.43 1019.54 1019.66 1019.76 1019.85 1019.92 1019.95 1019.95 1019.92 1019.87 1019.82 1019.79 1019.79 1019.84 1019.94 1020.10 1020.30 1020.52 1020.74 1020.94 1021.11 1021.25 1021.36 1021.45 1021.55 1021.67 1021.83 1022.03 1022.25 1022.49 1022.71 1022.90 1023.03 1023.10 1023.11
1017.88 1018.12 1018.36 1018.59 1018.81 1019.00 1019.17 1019.32 1019.47 1019.60 1019.73 1019.85 1019.96 1020.03 1020.06 1020.04 1019.98 1019.87 1019.75 1019.62 1019.53 1019.48 1019.51 1019.61 1019.78 1020.00 1020.25 1020.49 1020.70 1020.89 1021.04 1021.17 1021.30 1021.44 1021.60 1021.80 1022.02 1022.25 1022.46 1022.65 1022.78 1022.85 1022.86
1017.57 1017.79 1018.04 1018.30 1018.56 1018.79 1019.01 1019.20 1019.37 1019.52 1019.68 1019.82 1019.94 1020.04 1020.09 1020.08 1020.00 1019.86 1019.67 1019.46 1019.27 1019.13 1019.06 1019.09 1019.20 1019.39 1019.63 1019.89 1020.14 1020.37 1020.57 1020.75 1020.91 1021.08 1021.26 1021.47 1021.70 1021.93 1022.15 1022.34 1022.48 1022.56 1022.60
1017.29 1017.46 1017.69 1017.96 1018.23 1018.50 1018.73 1018.94 1019.12 1019.29 1019.46 1019.62 1019.78 1019.91 1020.00 1020.01 1019.95 1019.79 1019.56 1019.29 1019.02 1018.78 1018.61 1018.54 1018.58 1018.72 1018.93 1019.18 1019.44 1019.70 1019.93 1020.15 1020.36 1020.56 1020.78 1021.02 1021.28 1021.53 1021.78 1021.99 1022.16 1022.28 1022.36
1017.06 1017.18 1017.38 1017.63 1017.89 1018.15 1018.38 1018.57 1018.75 1018.91 1019.08 1019.26 1019.45 1019.62 1019.76 1019.82 1019.79 1019.65 1019.41 1019.11 1018.77 1018.46 1018.20 1018.04 1017.98 1018.04 1018.19 1018.40 1018.64 1018.90 1019.15 1019.40 1019.64 1019.89 1020.16 1020.44 1020.75 1021.06 1021.36 1021.63 1021.86 1022.04 1022.18
1016.89 1016.97 1017.13 1017.34 1017.57 1017.79 1017.99 1018.15 1018.29 1018.43 1018.58 1018.77 1018.97 1019.19 1019.37 1019.49 1019.51 1019.42 1019.20 1018.90 1018.54 1018.17 1017.84 1017.59 1017.45 1017.42 1017.48 1017.63 1017.82 1018.04 1018.28 1018.54 1018.80 1019.09 1019.41 1019.77 1020.14 1020.53 1020.92 1021.28 1021.60 1021.88 1022.10
1016.78 1016.82 1016.94 1017.12 1017.31 1017.48 1017.62 1017.73 1017.81 1017.90 1018.02 1018.19 1018.40 1018.63 1018.86 1019.03 1019.11 1019.08 1018.91 1018.64 1018.29 1017.91 1017.54 1017.24 1017.02 1016.90 1016.88 1016.94 1017.05 1017.22 1017.42 1017.65 1017.93 1018.25 1018.62 1019.05 1019.51 1020.00 1020.50 1020.97 1021.41 1021.79 1022.12
1016.71 1016.74 1016.83 1016.97 1017.11 1017.23 1017.31 1017.34 1017.36 1017.38 1017.45 1017.57 1017.76 1018.00 1018.24 1018.46 1018.60 1018.62 1018.52 1018.31 1018.00 1017.65 1017.28 1016.96 1016.70 1016.51 1016.42 1016.39 1016.43 1016.52 1016.66 1016.86 1017.12 1017.45 1017.87 1018.36 1018.92 1019.52 1020.13 1020.73 1021.29 1021.79 1022.23
1016.67 1016.70 1016.78 1016.90 1017.00 1017.06 1017.07 1017.03 1016.97 1016.92 1016.91 1016.98 1017.12 1017.33 1017.57 1017.80 1017.97 1018.05 1018.02 1017.87 1017.64 1017.35 1017.03 1016.73 1016.47 1016.26 1016.11 1016.02 1015.99 1016.01 1016.08 1016.23 1016.47 1016.81 1017.25 1017.80 1018.44 1019.14 1019.86 1020.58 1021.26 1021.87 1022.40
1016.66 1016.70 1016.79 1016.88 1016.95 1016.97 1016.92 1016.81 1016.67 1016.54 1016.45 1016.44 1016.51 1016.66 1016.86 1017.07 1017.25 1017.36 1017.39 1017.32 1017.17 1016.96 1016.73 1016.50 1016.28 1016.10 1015.95 1015.84 1015.76 1015.73 1015.76 1015.87 1016.08 1016.41 1016.87 1017.46 1018.15 1018.93 1019.74 1020.55 1021.32 1022.02 1022.62
1016.67 1016.74 1016.84 1016.92 1016.97 1016.95 1016.85 1016.68 1016.46 1016.25 1016.08 1015.97 1015.95 1016.02 1016.15 1016.30 1016.46 1016.57 1016.63 1016.62 1016.56 1016.46 1016.33 1016.21 1016.09 1015.98 1015.88 1015.80 1015.73 1015.70 1015.71 1015.80 1015.99 1016.31 1016.78 1017.39 1018.12 1018.94 1019.81 1020.67 1021.49 1022.24 1022.89
1016.74 1016.83 1016.93 1017.01 1017.04 1016.99 1016.85 1016.63 1016.35 1016.06 1015.80 1015.60 1015.48 1015.44 1015.46 1015.53 1015.62 1015.70 1015.76 1015.79 1015.80 1015.80 1015.80 1015.81 1015.82 1015.84 1015.85 1015.85 1015.85 1015.86 1015.90 1016.01 1016.21 1016.54 1017.02 1017.63 1018.37 1019.20 1020.08 1020.96 1021.79 1022.55 1023.20
1016.87 1016.98 1017.09 1017.16 1017.17 1017.09 1016.92 1016.66 1016.33 1015.98 1015.63 1015.34 1015.10 1014.94 1014.84 1014.80 1014.78 1014.80 1014.82 1014.86 1014.92 1015.00 1015.12 1015.27 1015.44 1015.61 1015.78 1015.93 1016.06 1016.17 1016.30 1016.47 1016.71 1017.07 1017.56 1018.17 1018.90 1019.71 1020.57 1021.42 1022.22 1022.94 1023.56
1017.08 1017.19 1017.30 1017.36 1017.36 1017.26 1017.05 1016.76 1016.39 1015.98 1015.57 1015.18 1014.84 1014.55 1014.32 1014.14 1014.01 1013.92 1013.88 1013.89 1013.96 1014.11 1014.32 1014.60 1014.93 1015.28 1015.63 1015.96 1016.26 1016.53 1016.79 1017.06 1017.39 1017.80 1018.31 1018.93 1019.64 1020.42 1021.22 1022.01 1022.75 1023.40 1023.96
1017.34 1017.46 1017.56 1017.61 1017.59 1017.47 1017.24 1016.92 1016.51 1016.06 1015.59 1015.13 1014.69 1014.29 1013.93 1013.62 1013.35 1013.14 1013.01 1012.96 1013.01 1013.18 1013.47 1013.86 1014.33 1014.85 1015.39 1015.91 1016.40 1016.86 1017.28 1017.70 1018.14 1018.63 1019.18 1019.81 1020.50 1021.23 1021.97 1022.68 1023.33 1023.91 1024.39
1017.63 1017.75 1017.84 1017.88 1017.84 1017.71 1017.46 1017.12 1016.70 1016.22 1015.71 1015.19 1014.68 1014.18 1013.71 1013.27 1012.87 1012.54 1012.30 1012.17 1012.17 1012.33 1012.65 1013.11 1013.69 1014.35 1015.06 1015.77 1016.45 1017.10 1017.70 1018.28 1018.84 1019.43 1020.04 1020.68 1021.36 1022.04 1022.71 1023.34 1023.91 1024.40 1024.80
1017.89 1018.01 1018.11 1018.15 1018.10 1017.95 1017.70 1017.36 1016.93 1016.44 1015.91 1015.36 1014.80 1014.23 1013.68 1013.13 1012.62 1012.18 1011.83 1011.60 1011.54 1011.65 1011.96 1012.45 1013.10 1013.86 1014.70 1015.56 1016.41 1017.22 1017.99 1018.72 1019.41 1020.09 1020.76 1021.43 1022.10 1022.75 1023.36 1023.92 1024.40 1024.81 1025.14
1018.08 1018.22 1018.33 1018.37 1018.32 1018.18 1017.93 1017.60 1017.18 1016.71 1016.19 1015.63 1015.05 1014.45 1013.84 1013.22 1012.63 1012.10 1011.65 1011.34 1011.19 1011.25 1011.52 1011.99 1012.66 1013.47 1014.38 1015.34 1016.30 1017.25 1018.15 1019.00 1019.79 1020.55 1021.28 1021.98 1022.65 1023.27 1023.83 1024.33 1024.75 1025.09 1025.36
1018.18 1018.34 1018.47 1018.52 1018.49 1018.37 1018.14 1017.83 1017.45 1017.01 1016.52 1015.99 1015.42 1014.82 1014.20 1013.55 1012.92 1012.32 1011.81 1011.42 1011.20 1011.18 1011.39 1011.82 1012.46 1013.26 1014.19 1015.19 1016.21 1017.22 1018.20 1019.12 1019.99 1020.81 1021.58 1022.29 1022.96 1023.56 1024.10 1024.55 1024.93 1025.22 1025.45
1018.18 1018.38 1018.53 1018.61 1018.61 1018.51 1018.32 1018.06 1017.72 1017.33 1016.90 1016.42 1015.90 1015.34 1014.74 1014.10 1013.46 1012.84 1012.29 1011.86 1011.58 1011.50 1011.64 1012.00 1012.57 1013.33 1014.21 1015.19 1016.21 1017.22 1018.22 1019.16 1020.06 1020.89 1021.67 1022.39 1023.05 1023.64 1024.15 1024.59 1024.93 1025.20 1025.40
1018.12 1018.36 1018.54 1018.65 1018.67 1018.62 1018.48 1018.27 1017.99 1017.68 1017.31 1016.91 1016.46 1015.97 1015.42 1014.84 1014.23 1013.63 1013.08 1012.63 1012.31 1012.18 1012.26 1012.54 1013.04 1013.71 1014.52 1015.42 1016.37 1017.34 1018.29 1019.20 1020.07 1020.88 1021.64 1022.34 1022.99 1023.56 1024.06 1024.48 1024.81 1025.07 1025.26
1018.06 1018.32 1018.52 1018.66 1018.72 1018.71 1018.62 1018.47 1018.28 1018.04 1017.76 1017.44 1017.08 1016.68 1016.21 1015.70 1015.16 1014.61 1014.09 1013.65 1013.34 1013.18 1013.20 1013.42 1013.82 1014.40 1015.10 1015.90 1016.75 1017.62 1018.49 1019.32 1020.12 1020.88 1021.59 1022.25 1022.86 1023.41 1023.90 1024.31 1024.64 1024.90 1025.09
Thickness
5745 5744 5743 5742 5742 5741 5741 5740 5740 5740 5739 5740 5739 5738 5737 5736 5734 5733 5732 5730 5728 5727 5725 5724 5722 5720 5719 5717 5716 5714 5713 5712 5710 5709 5708 5706 5705 5704 5703 5702 5701 5700 5699
5746 5745 5743 5742 5742 5741 5741 5740 5740 5740 5739 5739 5739 5738 5737 5736 5734 5733 5732 5730 5729 5727 5725 5724 5722 5721 5719 5717 5716 5714 5713 5711 5710 5709 5707 5706 5705 5704 5703 5702 5700 5699 5698
5747 5745 5743 5742 5742 5741 5741 5740 5740 5740 5739 5739 5739 5738 5737 5736 5735 5734 5732 5731 5729 5728 5726 5724 5722 5721 5719 5718 5716 5715 5713 5711 5710 5708 5707 5705 5704 5703 5702 5701 5699 5698 5697
5747 5745 5744 5743 5742 5742 5741 5740 5740 5738 5738 5737 5737 5737 5737 5736 5735 5734 5733 5731 5730 5728 5727 5725 5723 5721 5720 5718 5717 5715 5713 5712 5710 5708 5707 5705 5704 5702 5701 5700 5698 5697 5696
5747 5745 5744 5743 5743 5742 5741 5741 5739 5738 5736 5735 5736 5736 5736 5736 5735 5734 5733 5732 5730 5729 5728 5726 5724 5722 5721 5719 5717 5716 5714 5712 5710 5708 5706 5705 5703 5702 5700 5699 5697 5696 5695
5747 5746 5744 5743 5742 5741 5740 5739 5738 5737 5736 5735 5736 5735 5735 5736 5735 5734 5733 5732 5731 5730 5728 5726 5725 5723 5721 5720 5718 5716 5714 5712 5710 5708 5706 5705 5703 5701 5699 5698 5696 5694 5693
5748 5746 5744 5742 5742 5740 5740 5739 5737 5735 5734 5735 5731 5729 5731 5734 5735 5735 5734 5733 5732 5731 5729 5727 5725 5724 5722 5721 5719 5717 5715 5713 5711 5709 5707 5704 5702 5700 5698 5696 5695 5693 5691
5748 5747 5745 5743 5741 5740 5739 5738 5737 5734 5733 5734 5729 5724 5720 5724 5730 5735 5734 5734 5733 5731 5729 5727 5726 5724 5723 5721 5719 5717 5715 5713 5711 5708 5706 5704 5702 5699 5697 5695 5693 5691 5689
5749 5747 5745 5743 5742 5740 5738 5738 5737 5734 5730 5732 5732 5726 5718 5715 5721 5729 5732 5733 5732 5731 5730 5728 5726 5724 5722 5720 5719 5717 5715 5713 5711 5708 5706 5703 5701 5698 5696 5693 5691 5689 5687
5749 5748 5746 5743 5742 5741 5739 5738 5737 5735 5732 5729 5730 5731 5729 5726 5719 5718 5725 5729 5730 5729 5729 5728 5726 5725 5723 5720 5718 5716 5714 5712 5710 5707 5705 5702 5700 5697 5694 5691 5689 5687 5684
5749 5747 5746 5744 5742 5741 5739 5738 5737 5735 5734 5731 5729 5728 5727 5726 5724 5718 5716 5721 5724 5726 5727 5726 5725 5724 5722 5720 5717 5716 5714 5711 5708 5706 5703 5701 5698 5695 5692 5689 5686 5684 5681
5747 5747 5745 5744 5742 5741 5739 5738 5737 5735 5734 5732 5731 5729 5727 5724 5722 5719 5716 5716 5717 5720 5723 5723 5722 5722 5720 5718 5715 5714 5711 5708 5705 5703 5700 5698 5695 5692 5689 5686 5683 5680 5678
5745 5745 5745 5743 5742 5741 5740 5738 5736 5734 5733 5732 5731 5730 5729 5728 5726 5722 5718 5715 5714 5715 5717 5719 5719 5718 5717 5715 5713 5710 5707 5705 5702 5699 5696 5693 5691 5688 5684 5681 5678 5676 5673
5746 5746 5745 5743 5742 5741 5739 5738 5736 5734 5733 5732 5732 5730 5729 5729 5727 5724 5720 5715 5710 5710 5710 5712 5714 5714 5713 5711 5709 5706 5703 5700 5698 5695 5692 5689 5686 5682 5679 5676 5673 5670 5667
5747 5746 5744 5742 5741 5740 5738 5737 5735 5733 5732 5732 5731 5730 5728 5728 5727 5726 5723 5719 5712 5705 5705 5707 5707 5708 5707 5706 5703 5701 5698 5695 5693 5690 5686 5683 5680 5676 5673 5669 5666 5663 5660
5747 5745 5743 5741 5740 5738 5737 5735 5733 5732 5730 5730 5728 5727 5726 5726 5725 5724 5722 5719 5716 5710 5704 5704 5703 5702 5701 5700 5697 5694 5691 5689 5686 5683 5680 5676 5673 5669 5665 5662 5659 5655 5652
5745 5743 5741 5739 5737 5736 5734 5732 5730 5729 5727 5726 5725 5724 5723 5723 5721 5720 5718 5716 5712 5709 5702 5700 5699 5697 5694 5693 5690 5687 5684 5681 5678 5675 5672 5668 5665 5661 5657 5654 5651 5647 5644
5743 5741 5739 5736 5735 5733 5732 5730 5727 5726 5724 5722 5722 5721 5720 5719 5718 5716 5714 5711 5709 5706 5701 5695 5692 5689 5687 5685 5682 5679 5676 5673 5670 5666 5663 5660 5656 5652 5649 5645 5642 5638 5635
5740 5738 5735 5733 5731 5730 5728 5727 5724 5723 5721 5719 5719 5717 5716 5715 5712 5711 5709 5707 5704 5702 5698 5692 5687 5684 5680 5677 5673 5670 5667 5663 5661 5657 5653 5650 5646 5643 5640 5636 5633 5629 5625
5736 5734 5731 5729 5728 5727 5725 5723 5721 5719 5717 5716 5715 5713 5712 5710 5708 5706 5704 5702 5699 5696 5691 5687 5682 5678 5673 5669 5666 5662 5656 5653 5651 5647 5643 5640 5636 5633 5630 5627 5623 5620 5616
5732 5729 5727 5725 5724 5722 5721 5719 5717 5715 5713 5710 5709 5708 5707 5705 5704 5702 5700 5697 5694 5690 5686 5681 5676 5671 5666 5662 5659 5655 5649 5645 5640 5637 5633 5630 5627 5623 5619 5616 5612 5609 5606
5727 5724 5722 5720 5718 5717 5716 5714 5712 5709 5707 5705 5702 5701 5699 5698 5697 5696 5694 5692 5690 5685 5681 5676 5672 5667 5663 5659 5654 5649 5643 5638 5632 5628 5624 5619 5616 5613 5609 5605 5601 5598 5594
5721 5718 5716 5714 5712 5711 5710 5708 5706 5703 5701 5699 5696 5694 5693 5691 5689 5688 5686 5685 5683 5681 5678 5673 5667 5663 5659 5655 5650 5644 5639 5634 5629 5623 5617 5610 5606 5601 5599 5595 5590 5586 5582
5715 5712 5710 5709 5707 5705 5704 5702 5700 5697 5694 5692 5690 5688 5685 5683 5682 5680 5678 5676 5674 5672 5670 5667 5663 5660 5656 5651 5647 5642 5635 5627 5620 5615 5610 5602 5596 5591 5588 5584 5580 5575 5570
5709 5707 5705 5703 5701 5699 5698 5696 5693 5690 5687 5684 5683 5680 5678 5676 5674 5672 5670 5667 5664 5662 5660 5658 5655 5652 5648 5644 5640 5633 5626 5618 5610 5605 5601 5595 5588 5582 5578 5574 5569 5565 5560
5704 5701 5699 5697 5695 5693 5692 5689 5687 5683 5679 5676 5674 5672 5671 5669 5667 5664 5661 5658 5654 5651 5649 5647 5644 5641 5638 5635 5631 5627 5621 5613 5604 5597 5592 5587 5580 5574 5567 5563 5559 5555 5550